| time (UTC) | temp C | wind direction | speed KPH | gust KPH | rain 1hr cm | rain 24hr cm | rain mn cm | humidity % | barometer mb |
| 20260906085308 | 17 | 306 | 9.7 | 24.1 | 0.00 | 0.03 | 0.00 | 64 | 1024.2 |
| 20260906084800 | 17 | 314 | 6.4 | 24.1 | 0.00 | 0.03 | 0.00 | 66 | 1024.3 |
| 20260906084535 | 16 | 309 | 11.3 | 20.9 | 0.00 | 0.03 | 0.00 | 65 | 1024.1 |
| 20260906084250 | 17 | 314 | 4.8 | 12.9 | 0.00 | 0.03 | 0.00 | 66 | 1024.3 |
| 20260906083741 | 17 | 290 | 6.4 | 19.3 | 0.00 | 0.03 | 0.00 | 66 | 1024.3 |
| 20260906083235 | 16 | 338 | 6.4 | 22.5 | 0.00 | 0.03 | 0.00 | 66 | 1024.2 |
| 20260906083008 | 16 | 303 | 4.8 | 22.5 | 0.00 | 0.03 | 0.00 | 66 | 1024.0 |
| 20260906082726 | 16 | 226 | 6.4 | 22.5 | 0.00 | 0.03 | 0.00 | 66 | 1024.2 |
| 20260906082219 | 16 | 319 | 8.0 | 24.1 | 0.00 | 0.03 | 0.00 | 67 | 1024.1 |
| 20260906081716 | 16 | 315 | 9.7 | 27.4 | 0.00 | 0.03 | 0.00 | 66 | 1024.0 |
| 20260906081552 | 16 | 298 | 6.4 | 27.4 | 0.00 | 0.03 | 0.00 | 66 | 1023.8 |
| 20260906081209 | 17 | 327 | 6.4 | 24.1 | 0.00 | 0.03 | 0.00 | 66 | 1023.9 |
| 20260906080656 | 16 | 298 | 6.4 | 20.9 | 0.00 | 0.03 | 0.00 | 67 | 1023.9 |
| 20260906080151 | 16 | 298 | 6.4 | 27.4 | 0.00 | 0.03 | 0.00 | 67 | 1023.9 |
| 20260906080031 | 16 | 236 | 3.2 | 27.4 | 0.00 | 0.03 | 0.00 | 68 | 1023.7 |
| 20260906075648 | 17 | 323 | 6.4 | 27.4 | 0.00 | 0.03 | 0.00 | 68 | 1023.9 |
| 20260906075140 | 16 | 300 | 6.4 | 24.1 | 0.00 | 0.03 | 0.00 | 68 | 1023.8 |
| 20260906074634 | 16 | 331 | 8.0 | 22.5 | 0.00 | 0.03 | 0.00 | 69 | 1023.8 |
| 20260906074518 | 16 | 263 | 3.2 | 22.5 | 0.00 | 0.03 | 0.00 | 69 | 1023.6 |
| 20260906074129 | 16 | 315 | 8.0 | 22.5 | 0.00 | 0.03 | 0.00 | 68 | 1023.7 |
| 20260906073629 | 16 | 318 | 6.4 | 20.9 | 0.00 | 0.03 | 0.00 | 69 | 1023.7 |
| 20260906073129 | 16 | 306 | 6.4 | 20.9 | 0.00 | 0.03 | 0.00 | 68 | 1023.6 |
| 20260906073104 | 16 | 329 | 6.4 | 20.9 | 0.00 | 0.03 | 0.00 | 69 | 1023.4 |
| 20260906072621 | 16 | 320 | 4.8 | 20.9 | 0.00 | 0.03 | 0.00 | 70 | 1023.5 |
| 20260906072109 | 16 | 304 | 4.8 | 25.7 | 0.00 | 0.03 | 0.00 | 71 | 1023.5 |
| 20260906071602 | 16 | 302 | 6.4 | 25.7 | 0.00 | 0.03 | 0.00 | 70 | 1023.4 |
| 20260906071537 | 16 | 302 | 6.4 | 25.7 | 0.00 | 0.03 | 0.00 | 70 | 1023.2 |
| 20260906071051 | 16 | 313 | 4.8 | 22.5 | 0.00 | 0.03 | 0.00 | 72 | 1023.4 |
| 20260906070542 | 16 | 290 | 4.8 | 19.3 | 0.00 | 0.03 | 0.00 | 73 | 1023.4 |
| 20260906070029 | 16 | 327 | 4.8 | 19.3 | 0.00 | 0.03 | 0.00 | 72 | 1023.3 |
| 20260906070003 | 15 | 327 | 4.8 | 19.3 | 0.00 | 0.03 | 0.00 | 72 | 1023.1 |
| 20260906065515 | 16 | 206 | 4.8 | 20.9 | 0.00 | 0.03 | 0.00 | 72 | 1023.3 |
| 20260906065003 | 16 | 265 | 4.8 | 16.1 | 0.00 | 0.03 | 0.00 | 73 | 1023.3 |
| 20260906064626 | 15 | 229 | 3.2 | 16.1 | 0.00 | 0.03 | 0.00 | 74 | 1023.1 |
| 20260906064444 | 16 | 35 | 4.8 | 20.9 | 0.00 | 0.03 | 0.00 | 73 | 1023.2 |
| 20260906063937 | 16 | 294 | 4.8 | 20.9 | 0.00 | 0.03 | 0.00 | 74 | 1023.3 |
| 20260906063002 | 16 | 337 | 1.6 | 11.3 | 0.00 | 0.03 | 0.00 | 74 | 1022.8 |
| 20260906062924 | 16 | 338 | 3.2 | 12.9 | 0.00 | 0.03 | 0.00 | 74 | 1023.0 |
| 20260906062414 | 16 | 292 | 4.8 | 22.5 | 0.00 | 0.03 | 0.00 | 74 | 1023.0 |
| 20260906061531 | 15 | 292 | 8.0 | 22.5 | 0.00 | 0.03 | 0.00 | 73 | 1022.7 |
| 20260906061350 | 15 | 325 | 4.8 | 16.1 | 0.00 | 0.03 | 0.00 | 74 | 1022.8 |
| 20260906060323 | 15 | 338 | 4.8 | 17.7 | 0.00 | 0.03 | 0.00 | 75 | 1022.6 |
| 20260906060137 | 15 | 309 | 3.2 | 12.9 | 0.00 | 0.03 | 0.00 | 76 | 1022.5 |
| 20260906055813 | 15 | 279 | 4.8 | 11.3 | 0.00 | 0.03 | 0.00 | 76 | 1022.6 |
| 20260906055300 | 15 | 279 | 3.2 | 19.3 | 0.00 | 0.03 | 0.00 | 77 | 1022.5 |
| 20260906054749 | 14 | 233 | 3.2 | 16.1 | 0.00 | 0.03 | 0.00 | 77 | 1022.5 |
| 20260906054517 | 14 | 319 | 1.6 | 16.1 | 0.00 | 0.15 | 0.00 | 78 | 1022.3 |
| 20260906054233 | 14 | 326 | 3.2 | 17.7 | 0.00 | 0.03 | 0.00 | 78 | 1022.5 |
| 20260906053211 | 14 | 290 | 3.2 | 9.7 | 0.00 | 0.05 | 0.00 | 79 | 1022.5 |
| 20260906053045 | 13 | 290 | 3.2 | 9.7 | 0.00 | 0.15 | 0.00 | 79 | 1022.3 |
| 20260906052653 | 14 | 279 | 3.2 | 14.5 | 0.00 | 0.08 | 0.00 | 79 | 1022.4 |
| 20260906052133 | 14 | 315 | 3.2 | 16.1 | 0.00 | 0.10 | 0.00 | 79 | 1022.3 |
| 20260906051622 | 13 | 282 | 3.2 | 16.1 | 0.00 | 0.13 | 0.00 | 80 | 1022.3 |
| 20260906051555 | 13 | 282 | 1.6 | 16.1 | 0.00 | 0.15 | 0.00 | 80 | 1022.1 |
| 20260906051108 | 13 | 315 | 3.2 | 9.7 | 0.00 | 0.13 | 0.00 | 80 | 1022.2 |
| 20260906050555 | 13 | 232 | 3.2 | 9.7 | 0.00 | 0.15 | 0.00 | 81 | 1022.2 |
| 20260906050056 | 13 | 239 | 3.2 | 4.8 | 0.00 | 0.15 | 0.00 | 81 | 1022.1 |
| 20260906050017 | 13 | 239 | 0.0 | 6.4 | 0.00 | 0.15 | 0.00 | 81 | 1021.9 |
| 20260906045532 | 13 | 238 | 4.8 | 12.9 | 0.00 | 0.15 | 0.00 | 80 | 1022.1 |
| 20260906045022 | 13 | 232 | 4.8 | 12.9 | 0.00 | 0.18 | 0.00 | 80 | 1022.0 |
| 20260906044548 | 13 | 242 | 4.8 | 11.3 | 0.00 | 0.18 | 0.00 | 80 | 1021.8 |
| 20260906043957 | 13 | 240 | 4.8 | 11.3 | 0.00 | 0.18 | 0.00 | 80 | 1022.0 |
| 20260906043013 | 13 | 244 | 4.8 | 12.9 | 0.00 | 0.18 | 0.00 | 80 | 1021.7 |
| 20260906042934 | 13 | 238 | 3.2 | 12.9 | 0.00 | 0.18 | 0.00 | 80 | 1021.8 |
| 20260906041921 | 13 | 245 | 3.2 | 11.3 | 0.00 | 0.18 | 0.00 | 80 | 1021.9 |
| 20260906041547 | 13 | 242 | 1.6 | 11.3 | 0.00 | 0.18 | 0.00 | 80 | 1021.6 |
| 20260906041405 | 13 | 242 | 3.2 | 11.3 | 0.00 | 0.18 | 0.00 | 80 | 1021.7 |
| 20260906040845 | 13 | 254 | 1.6 | 8.0 | 0.00 | 0.18 | 0.00 | 80 | 1021.7 |
| 20260906040329 | 13 | 254 | 3.2 | 8.0 | 0.00 | 0.18 | 0.00 | 80 | 1021.7 |
| 20260906035825 | 13 | 246 | 3.2 | 8.0 | 0.00 | 0.18 | 0.00 | 81 | 1021.7 |
| 20260906035321 | 13 | 250 | 3.2 | 12.9 | 0.00 | 0.18 | 0.00 | 81 | 1021.6 |
| 20260906034819 | 13 | 268 | 3.2 | 12.9 | 0.00 | 0.18 | 0.00 | 81 | 1021.6 |
| 20260906034332 | 13 | 239 | 3.2 | 8.0 | 0.00 | 0.18 | 0.00 | 81 | 1021.5 |
| 20260906033803 | 13 | 259 | 3.2 | 8.0 | 0.00 | 0.18 | 0.00 | 82 | 1021.5 |
| 20260906033252 | 13 | 300 | 1.6 | 8.0 | 0.00 | 0.18 | 0.00 | 82 | 1021.5 |
| 20260906033021 | 12 | 248 | 3.2 | 6.4 | 0.00 | 0.18 | 0.00 | 82 | 1021.3 |
| 20260906032739 | 12 | 249 | 1.6 | 4.8 | 0.00 | 0.18 | 0.00 | 82 | 1021.4 |
| 20260906032223 | 12 | 248 | 1.6 | 8.0 | 0.00 | 0.18 | 0.00 | 82 | 1021.4 |
| 20260906031711 | 12 | 248 | 1.6 | 8.0 | 0.00 | 0.18 | 0.00 | 82 | 1021.4 |
| 20260906031607 | 12 | 248 | 1.6 | 8.0 | 0.00 | 0.18 | 0.00 | 82 | 1021.1 |
| 20260906031150 | 12 | 240 | 1.6 | 8.0 | 0.00 | 0.18 | 0.00 | 81 | 1021.3 |
| 20260906030121 | 13 | 246 | 1.6 | 8.0 | 0.00 | 0.18 | 0.00 | 81 | 1021.2 |
| 20260906030057 | 12 | 246 | 0.0 | 8.0 | 0.00 | 0.18 | 0.00 | 81 | 1021.0 |
| 20260906025602 | 13 | 246 | 1.6 | 8.0 | 0.00 | 0.18 | 0.00 | 81 | 1021.1 |
| 20260906025047 | 13 | 241 | 1.6 | 6.4 | 0.00 | 0.18 | 0.00 | 81 | 1021.1 |
| 20260906024533 | 13 | 241 | 1.6 | 6.4 | 0.00 | 0.18 | 0.00 | 81 | 1021.0 |
| 20260906024506 | 13 | 241 | 1.6 | 6.4 | 0.00 | 0.18 | 0.00 | 81 | 1020.8 |
| 20260906024018 | 13 | 229 | 1.6 | 6.4 | 0.00 | 0.18 | 0.00 | 81 | 1020.9 |
| 20260906023505 | 13 | 265 | 1.6 | 6.4 | 0.00 | 0.18 | 0.00 | 80 | 1020.9 |
| 20260906023031 | 13 | 260 | 3.2 | 16.1 | 0.00 | 0.18 | 0.00 | 80 | 1020.7 |
| 20260906022951 | 13 | 319 | 1.6 | 17.7 | 0.00 | 0.18 | 0.00 | 80 | 1020.9 |
| 20260906022437 | 13 | 307 | 3.2 | 17.7 | 0.00 | 0.18 | 0.00 | 80 | 1020.9 |
| 20260906021915 | 13 | 225 | 1.6 | 12.9 | 0.00 | 0.18 | 0.00 | 80 | 1020.9 |
| 20260906021555 | 13 | 234 | 1.6 | 12.9 | 0.00 | 0.18 | 0.00 | 80 | 1020.7 |
| 20260906021416 | 13 | 246 | 1.6 | 6.4 | 0.00 | 0.18 | 0.00 | 79 | 1021.0 |
| 20260906020018 | 13 | 314 | 1.6 | 4.8 | 0.00 | 0.18 | 0.00 | 79 | 1020.7 |
| 20260906015835 | 14 | 284 | 1.6 | 4.8 | 0.00 | 0.18 | 0.00 | 79 | 1020.9 |
| 20260906014808 | 14 | 237 | 1.6 | 6.4 | 0.00 | 0.18 | 0.00 | 79 | 1020.8 |
| 20260906014537 | 13 | 237 | 1.6 | 6.4 | 0.00 | 0.18 | 0.00 | 78 | 1020.5 |
| 20260906014254 | 14 | 111 | 1.6 | 4.8 | 0.00 | 0.18 | 0.00 | 78 | 1020.7 |
| 20260906013739 | 14 | 234 | 3.2 | 14.5 | 0.00 | 0.18 | 0.00 | 78 | 1020.6 |
| 20260906013227 | 14 | 274 | 3.2 | 14.5 | 0.00 | 0.18 | 0.00 | 78 | 1020.6 |
| 20260906013059 | 14 | 273 | 3.2 | 14.5 | 0.00 | 0.18 | 0.00 | 78 | 1020.3 |
| 20260906012712 | 14 | 265 | 1.6 | 6.4 | 0.00 | 0.18 | 0.00 | 78 | 1020.6 |
| 20260906012159 | 15 | 355 | 1.6 | 6.4 | 0.00 | 0.18 | 0.00 | 78 | 1020.5 |
| 20260906011647 | 15 | 302 | 1.6 | 8.0 | 0.00 | 0.18 | 0.00 | 77 | 1020.5 |
| 20260906011530 | 14 | 260 | 1.6 | 8.0 | 0.00 | 0.18 | 0.00 | 77 | 1020.2 |
| 20260906011148 | 15 | 329 | 3.2 | 11.3 | 0.00 | 0.18 | 0.00 | 77 | 1020.5 |
| 20260906010132 | 15 | 246 | 3.2 | 16.1 | 0.00 | 0.18 | 0.00 | 78 | 1020.4 |
| 20260906010055 | 15 | 246 | 1.6 | 16.1 | 0.00 | 0.18 | 0.00 | 78 | 1020.1 |
| 20260906004638 | 14 | 253 | 1.6 | 8.0 | 0.00 | 0.18 | 0.00 | 79 | 1020.0 |
| 20260906004559 | 15 | 238 | 1.6 | 11.3 | 0.00 | 0.18 | 0.00 | 79 | 1020.3 |
| 20260906004056 | 15 | 235 | 1.6 | 11.3 | 0.00 | 0.18 | 0.00 | 79 | 1020.3 |
| 20260906003547 | 15 | 246 | 1.6 | 6.4 | 0.00 | 0.18 | 0.00 | 79 | 1020.3 |
| 20260906003121 | 15 | 261 | 0.0 | 6.4 | 0.00 | 0.18 | 0.00 | 79 | 1019.9 |
| 20260906003038 | 15 | 261 | 1.6 | 6.4 | 0.00 | 0.18 | 0.00 | 79 | 1020.2 |
| 20260906002533 | 15 | 265 | 1.6 | 4.8 | 0.00 | 0.18 | 0.00 | 79 | 1020.1 |
| 20260906002026 | 15 | 277 | 1.6 | 16.1 | 0.00 | 0.18 | 0.00 | 79 | 1020.2 |
| 20260906001551 | 15 | 277 | 1.6 | 16.1 | 0.00 | 0.18 | 0.00 | 78 | 1019.8 |
| 20260906001513 | 15 | 275 | 1.6 | 16.1 | 0.00 | 0.18 | 0.00 | 78 | 1020.2 |
| 20260906001007 | 15 | 264 | 3.2 | 12.9 | 0.00 | 0.18 | 0.00 | 79 | 1020.2 |
| 20260906000452 | 15 | 250 | 3.2 | 12.9 | 0.00 | 0.18 | 0.00 | 79 | 1020.2 |
| 20260906000028 | 15 | 5 | 1.6 | 12.9 | 0.00 | 0.18 | 0.00 | 79 | 1019.8 |
| 20260905235951 | 15 | 5 | 3.2 | 12.9 | 0.00 | 0.18 | 0.00 | 79 | 1020.1 |
| 20260905235445 | 15 | 293 | 3.2 | 12.9 | 0.00 | 0.18 | 0.00 | 80 | 1020.1 |
| 20260905234932 | 15 | 286 | 3.2 | 12.9 | 0.00 | 0.18 | 0.00 | 81 | 1020.1 |
| 20260905234502 | 14 | 286 | 1.6 | 12.9 | 0.00 | 0.18 | 0.00 | 81 | 1019.7 |
| 20260905234427 | 15 | 286 | 3.2 | 12.9 | 0.00 | 0.18 | 0.00 | 81 | 1020.1 |
| 20260905233913 | 15 | 247 | 3.2 | 12.9 | 0.00 | 0.18 | 0.00 | 82 | 1020.1 |
| 20260905233040 | 14 | 239 | 1.6 | 8.0 | 0.00 | 0.18 | 0.00 | 83 | 1019.7 |
| 20260905232857 | 14 | 308 | 3.2 | 9.7 | 0.00 | 0.18 | 0.00 | 84 | 1020.1 |
| 20260905232349 | 14 | 267 | 1.6 | 9.7 | 0.00 | 0.18 | 0.00 | 84 | 1020.0 |
| 20260905231841 | 14 | 236 | 1.6 | 4.8 | 0.00 | 0.18 | 0.00 | 85 | 1020.0 |
| 20260905231510 | 14 | 236 | 0.0 | 4.8 | 0.00 | 0.18 | 0.00 | 85 | 1019.6 |
| 20260905231331 | 14 | 236 | 1.6 | 6.4 | 0.00 | 0.18 | 0.00 | 85 | 1020.0 |
| 20260905230817 | 14 | 224 | 1.6 | 6.4 | 0.00 | 0.18 | 0.00 | 85 | 1020.0 |
| 20260905230308 | 14 | 214 | 1.6 | 11.3 | 0.00 | 0.18 | 0.00 | 85 | 1020.0 |
| 20260905230144 | 14 | 246 | 0.0 | 11.3 | 0.00 | 0.18 | 0.00 | 85 | 1019.6 |
| 20260905225305 | 14 | 290 | 1.6 | 8.0 | 0.00 | 0.18 | 0.00 | 86 | 1019.9 |
| 20260905224751 | 14 | 259 | 3.2 | 11.3 | 0.00 | 0.18 | 0.00 | 86 | 1019.9 |
| 20260905224523 | 14 | 242 | 1.6 | 11.3 | 0.00 | 0.18 | 0.00 | 86 | 1019.5 |
| 20260905224239 | 14 | 252 | 1.6 | 11.3 | 0.00 | 0.18 | 0.00 | 86 | 1019.9 |
| 20260905223729 | 14 | 254 | 3.2 | 12.9 | 0.00 | 0.18 | 0.00 | 87 | 1020.0 |
| 20260905223219 | 14 | 311 | 3.2 | 12.9 | 0.03 | 0.18 | 0.00 | 87 | 1019.9 |
| 20260905223050 | 13 | 311 | 3.2 | 12.9 | 0.03 | 0.18 | 0.00 | 87 | 1019.5 |
| 20260905222156 | 14 | 263 | 1.6 | 9.7 | 0.03 | 0.18 | 0.00 | 87 | 1019.9 |
| 20260905221644 | 14 | 248 | 1.6 | 8.0 | 0.03 | 0.18 | 0.00 | 87 | 1020.0 |
| 20260905221520 | 13 | 248 | 1.6 | 8.0 | 0.03 | 0.18 | 0.00 | 87 | 1019.6 |
| 20260905221144 | 14 | 306 | 1.6 | 12.9 | 0.03 | 0.18 | 0.00 | 87 | 1019.9 |
| 20260905220101 | 13 | 239 | 4.8 | 14.5 | 0.03 | 0.18 | 0.00 | 86 | 1019.5 |
| 20260905215617 | 14 | 248 | 1.6 | 14.5 | 0.03 | 0.18 | 0.18 | 85 | 1019.9 |
| 20260905215112 | 14 | 250 | 1.6 | 11.3 | 0.03 | 0.18 | 0.18 | 85 | 1020.0 |
| 20260905214613 | 14 | 250 | 3.2 | 11.3 | 0.03 | 0.18 | 0.18 | 84 | 1020.0 |
| 20260905214551 | 14 | 250 | 1.6 | 11.3 | 0.03 | 0.18 | 0.18 | 84 | 1019.6 |
| 20260905214108 | 15 | 323 | 3.2 | 16.1 | 0.03 | 0.18 | 0.18 | 83 | 1020.1 |
| 20260905213555 | 15 | 308 | 4.8 | 16.1 | 0.00 | 0.15 | 0.15 | 82 | 1020.1 |
| 20260905213050 | 15 | 287 | 4.8 | 16.1 | 0.00 | 0.15 | 0.15 | 80 | 1020.1 |
| 20260905213027 | 15 | 306 | 4.8 | 16.1 | 0.00 | 0.15 | 0.15 | 79 | 1019.7 |
| 20260905212542 | 15 | 313 | 3.2 | 14.5 | 0.00 | 0.15 | 0.15 | 78 | 1020.0 |
| 20260905211537 | 16 | 344 | 4.8 | 14.5 | 0.00 | 0.15 | 0.15 | 75 | 1019.9 |
| 20260905211511 | 15 | 344 | 4.8 | 14.5 | 0.00 | 0.15 | 0.15 | 74 | 1019.5 |
| 20260905211029 | 16 | 309 | 6.4 | 24.1 | 0.00 | 0.15 | 0.15 | 73 | 1019.8 |
| 20260905210513 | 16 | 265 | 8.0 | 19.3 | 0.00 | 0.15 | 0.15 | 72 | 1019.8 |
| 20260905210151 | 16 | 323 | 11.3 | 24.1 | 0.00 | 0.15 | 0.15 | 71 | 1019.5 |
| 20260905210012 | 16 | 292 | 9.7 | 29.0 | 0.00 | 0.15 | 0.15 | 70 | 1019.9 |
| 20260905205501 | 16 | 314 | 11.3 | 37.0 | 0.00 | 0.15 | 0.15 | 70 | 1019.9 |
| 20260905204952 | 17 | 304 | 12.9 | 37.0 | 0.00 | 0.15 | 0.15 | 68 | 1019.7 |
| 20260905204525 | 17 | 312 | 11.3 | 37.0 | 0.00 | 0.15 | 0.15 | 65 | 1019.2 |
| 20260905204446 | 17 | 256 | 9.7 | 35.4 | 0.00 | 0.15 | 0.15 | 65 | 1019.6 |
| 20260905203930 | 17 | 219 | 3.2 | 24.1 | 0.00 | 0.15 | 0.15 | 60 | 1019.4 |
| 20260905203418 | 16 | 315 | 1.6 | 4.8 | 0.00 | 0.15 | 0.15 | 63 | 1018.8 |
| 20260905203045 | 16 | 293 | 0.0 | 9.7 | 0.00 | 0.15 | 0.15 | 64 | 1018.2 |
| 20260905202352 | 16 | 262 | 1.6 | 14.5 | 0.00 | 0.15 | 0.15 | 65 | 1018.5 |
| 20260905201841 | 16 | 261 | 3.2 | 14.5 | 0.00 | 0.15 | 0.15 | 65 | 1018.3 |
| 20260905201610 | 16 | 240 | 0.0 | 6.4 | 0.00 | 0.15 | 0.15 | 66 | 1018.0 |
| 20260905200811 | 16 | 243 | 3.2 | 11.3 | 0.00 | 0.15 | 0.15 | 65 | 1018.3 |
| 20260905200251 | 16 | 241 | 4.8 | 11.3 | 0.00 | 0.15 | 0.15 | 65 | 1018.2 |
| 20260905200011 | 16 | 241 | 3.2 | 11.3 | 0.00 | 0.15 | 0.15 | 65 | 1017.9 |
| 20260905195732 | 16 | 238 | 4.8 | 11.3 | 0.00 | 0.15 | 0.15 | 65 | 1018.2 |
| 20260905194709 | 16 | 242 | 4.8 | 6.4 | 0.00 | 0.15 | 0.15 | 64 | 1018.1 |
| 20260905194539 | 16 | 246 | 4.8 | 6.4 | 0.00 | 0.15 | 0.15 | 64 | 1017.7 |
| 20260905193643 | 16 | 247 | 4.8 | 6.4 | 0.00 | 0.15 | 0.15 | 64 | 1018.0 |
| 20260905193141 | 16 | 248 | 3.2 | 4.8 | 0.00 | 0.15 | 0.15 | 64 | 1017.9 |
| 20260905193015 | 16 | 248 | 3.2 | 4.8 | 0.00 | 0.15 | 0.15 | 64 | 1017.5 |
| 20260905192633 | 16 | 248 | 1.6 | 4.8 | 0.00 | 0.15 | 0.15 | 64 | 1017.9 |
| 20260905192120 | 16 | 248 | 0.0 | 4.8 | 0.00 | 0.15 | 0.15 | 63 | 1017.9 |
| 20260905191542 | 16 | 248 | 0.0 | 4.8 | 0.00 | 0.15 | 0.15 | 63 | 1017.5 |
| 20260905190030 | 17 | 248 | 1.6 | 4.8 | 0.00 | 0.15 | 0.15 | 62 | 1017.8 |
| 20260905190014 | 17 | 248 | 0.0 | 4.8 | 0.00 | 0.15 | 0.15 | 62 | 1017.3 |
| 20260905185532 | 17 | 248 | 1.6 | 6.4 | 0.00 | 0.15 | 0.15 | 61 | 1017.8 |
| 20260905185016 | 17 | 248 | 1.6 | 6.4 | 0.00 | 0.15 | 0.15 | 61 | 1017.7 |
| 20260905184527 | 17 | 250 | 1.6 | 4.8 | 0.00 | 0.15 | 0.15 | 62 | 1017.2 |
| 20260905184450 | 17 | 250 | 0.0 | 4.8 | 0.00 | 0.15 | 0.15 | 62 | 1017.7 |
| 20260905183426 | 17 | 250 | 1.6 | 4.8 | 0.00 | 0.15 | 0.15 | 61 | 1017.5 |
| 20260905183051 | 17 | 251 | 0.0 | 4.8 | 0.00 | 0.15 | 0.15 | 61 | 1017.1 |
| 20260905182910 | 17 | 251 | 1.6 | 4.8 | 0.00 | 0.15 | 0.15 | 61 | 1017.5 |
| 20260905182357 | 17 | 252 | 1.6 | 4.8 | 0.00 | 0.15 | 0.15 | 61 | 1017.5 |
| 20260905181507 | 17 | 257 | 0.0 | 3.2 | 0.00 | 0.15 | 0.15 | 60 | 1017.1 |
| 20260905181328 | 17 | 257 | 1.6 | 6.4 | 0.00 | 0.15 | 0.15 | 59 | 1017.5 |
| 20260905180311 | 18 | 248 | 1.6 | 8.0 | 0.00 | 0.15 | 0.15 | 59 | 1017.3 |
| 20260905180057 | 17 | 248 | 0.0 | 8.0 | 0.00 | 0.15 | 0.15 | 59 | 1016.9 |
| 20260905175758 | 18 | 246 | 1.6 | 8.0 | 0.00 | 0.15 | 0.15 | 59 | 1017.3 |
| 20260905175241 | 18 | 252 | 0.0 | 3.2 | 0.00 | 0.15 | 0.15 | 58 | 1017.2 |
| 20260905174727 | 18 | 252 | 1.6 | 4.8 | 0.00 | 0.15 | 0.15 | 58 | 1017.1 |
| 20260905174559 | 18 | 252 | 0.0 | 4.8 | 0.00 | 0.15 | 0.15 | 57 | 1016.6 |
| 20260905174213 | 18 | 254 | 0.0 | 4.8 | 0.00 | 0.15 | 0.15 | 57 | 1017.0 |
| 20260905173702 | 18 | 259 | 1.6 | 3.2 | 0.00 | 0.15 | 0.15 | 56 | 1017.0 |
| 20260905173148 | 19 | 259 | 1.6 | 6.4 | 0.00 | 0.15 | 0.15 | 56 | 1017.0 |
| 20260905173019 | 18 | 259 | 0.0 | 6.4 | 0.00 | 0.15 | 0.15 | 56 | 1016.5 |
| 20260905172634 | 19 | 250 | 1.6 | 6.4 | 0.00 | 0.15 | 0.15 | 56 | 1016.9 |
| 20260905172125 | 19 | 257 | 1.6 | 6.4 | 0.00 | 0.15 | 0.15 | 55 | 1017.0 |
| 20260905171552 | 19 | 256 | 1.6 | 8.0 | 0.00 | 0.15 | 0.15 | 55 | 1016.4 |
| 20260905171054 | 19 | 284 | 1.6 | 8.0 | 0.00 | 0.15 | 0.15 | 55 | 1016.9 |
| 20260905170539 | 19 | 277 | 1.6 | 4.8 | 0.00 | 0.15 | 0.15 | 55 | 1016.8 |
| 20260905170105 | 19 | 66 | 1.6 | 8.0 | 0.00 | 0.15 | 0.15 | 54 | 1016.3 |
| 20260905170027 | 19 | 308 | 3.2 | 11.3 | 0.00 | 0.15 | 0.15 | 54 | 1016.7 |
| 20260905165511 | 20 | 252 | 1.6 | 11.3 | 0.00 | 0.15 | 0.15 | 54 | 1016.7 |
| 20260905164525 | 20 | 265 | 1.6 | 8.0 | 0.00 | 0.15 | 0.15 | 53 | 1016.1 |
| 20260905164448 | 20 | 256 | 1.6 | 11.3 | 0.00 | 0.15 | 0.15 | 53 | 1016.6 |
| 20260905163931 | 20 | 252 | 1.6 | 11.3 | 0.00 | 0.15 | 0.15 | 52 | 1016.5 |
| 20260905163411 | 20 | 282 | 3.2 | 12.9 | 0.00 | 0.15 | 0.15 | 52 | 1016.5 |
| 20260905163037 | 20 | 277 | 1.6 | 12.9 | 0.00 | 0.15 | 0.15 | 52 | 1016.0 |
| 20260905162856 | 20 | 303 | 3.2 | 12.9 | 0.00 | 0.15 | 0.15 | 51 | 1016.5 |
| 20260905162343 | 20 | 259 | 3.2 | 12.9 | 0.00 | 0.15 | 0.15 | 51 | 1016.4 |
| 20260905161826 | 20 | 293 | 3.2 | 12.9 | 0.00 | 0.15 | 0.15 | 50 | 1016.3 |
| 20260905161559 | 20 | 271 | 3.2 | 12.9 | 0.00 | 0.15 | 0.15 | 50 | 1015.7 |
| 20260905161314 | 21 | 317 | 1.6 | 9.7 | 0.00 | 0.15 | 0.15 | 51 | 1016.2 |
| 20260905160758 | 21 | 254 | 3.2 | 8.0 | 0.00 | 0.15 | 0.15 | 51 | 1016.1 |
| 20260905160259 | 21 | 338 | 4.8 | 14.5 | 0.00 | 0.15 | 0.15 | 51 | 1016.0 |
| 20260905160021 | 21 | 313 | 3.2 | 14.5 | 0.00 | 0.15 | 0.15 | 50 | 1015.5 |
| 20260905155732 | 21 | 315 | 4.8 | 17.7 | 0.00 | 0.15 | 0.15 | 51 | 1016.0 |
| 20260905155217 | 21 | 304 | 4.8 | 17.7 | 0.00 | 0.15 | 0.15 | 51 | 1015.9 |
| 20260905154654 | 21 | 319 | 4.8 | 17.7 | 0.00 | 0.15 | 0.15 | 52 | 1015.8 |
| 20260905154525 | 21 | 246 | 1.6 | 16.1 | 0.00 | 0.15 | 0.15 | 52 | 1015.3 |
| 20260905154157 | 21 | 257 | 3.2 | 16.1 | 0.00 | 0.15 | 0.15 | 52 | 1015.8 |
| 20260905153629 | 21 | 279 | 3.2 | 16.1 | 0.00 | 0.15 | 0.15 | 53 | 1015.7 |
| 20260905153108 | 21 | 240 | 3.2 | 16.1 | 0.00 | 0.15 | 0.15 | 51 | 1015.7 |
| 20260905153043 | 21 | 244 | 4.8 | 16.1 | 0.00 | 0.15 | 0.15 | 53 | 1015.1 |
| 20260905152042 | 21 | 297 | 3.2 | 11.3 | 0.00 | 0.15 | 0.15 | 53 | 1015.6 |
| 20260905151505 | 21 | 276 | 1.6 | 12.9 | 0.00 | 0.15 | 0.15 | 54 | 1015.0 |
| 20260905151021 | 21 | 292 | 3.2 | 12.9 | 0.00 | 0.15 | 0.15 | 53 | 1015.6 |
| 20260905150509 | 21 | 249 | 4.8 | 16.1 | 0.00 | 0.15 | 0.15 | 52 | 1015.5 |
| 20260905150035 | 22 | 315 | 1.6 | 17.7 | 0.00 | 0.15 | 0.15 | 51 | 1015.0 |
| 20260905145954 | 22 | 315 | 6.4 | 19.3 | 0.00 | 0.15 | 0.15 | 50 | 1015.5 |
| 20260905145454 | 22 | 299 | 4.8 | 20.9 | 0.00 | 0.15 | 0.15 | 50 | 1015.5 |
| 20260905145006 | 22 | 298 | 4.8 | 20.9 | 0.00 | 0.15 | 0.15 | 53 | 1015.4 |
| 20260905144527 | 21 | 320 | 6.4 | 20.9 | 0.00 | 0.15 | 0.15 | 51 | 1014.7 |
| 20260905144438 | 22 | 294 | 4.8 | 19.3 | 0.00 | 0.15 | 0.15 | 51 | 1015.4 |
| 20260905143931 | 22 | 305 | 4.8 | 17.7 | 0.00 | 0.15 | 0.15 | 49 | 1015.3 |
| 20260905143429 | 23 | 327 | 4.8 | 14.5 | 0.00 | 0.15 | 0.15 | 48 | 1015.3 |
| 20260905143202 | 23 | 294 | 4.8 | 12.9 | 0.00 | 0.15 | 0.15 | 48 | 1014.8 |
| 20260905142920 | 23 | 304 | 6.4 | 19.3 | 0.00 | 0.15 | 0.15 | 48 | 1015.4 |
| 20260905142418 | 23 | 335 | 4.8 | 19.3 | 0.00 | 0.15 | 0.15 | 49 | 1015.3 |
| 20260905141918 | 23 | 300 | 3.2 | 17.7 | 0.00 | 0.15 | 0.15 | 49 | 1015.3 |
| 20260905141550 | 23 | 319 | 1.6 | 9.7 | 0.00 | 0.15 | 0.15 | 51 | 1014.8 |
| 20260905141416 | 23 | 325 | 4.8 | 17.7 | 0.00 | 0.15 | 0.15 | 50 | 1015.3 |
| 20260905140914 | 23 | 262 | 4.8 | 19.3 | 0.00 | 0.15 | 0.15 | 52 | 1015.3 |
| 20260905140403 | 22 | 355 | 4.8 | 19.3 | 0.00 | 0.15 | 0.15 | 51 | 1015.4 |
| 20260905140041 | 22 | 315 | 4.8 | 16.1 | 0.00 | 0.15 | 0.15 | 54 | 1014.8 |
| 20260905135858 | 22 | 309 | 4.8 | 14.5 | 0.00 | 0.15 | 0.15 | 53 | 1015.3 |
| 20260905135347 | 22 | 315 | 4.8 | 14.5 | 0.00 | 0.15 | 0.15 | 54 | 1015.4 |
| 20260905134842 | 23 | 302 | 4.8 | 17.7 | 0.00 | 0.15 | 0.15 | 52 | 1015.4 |
| 20260905134515 | 22 | 310 | 3.2 | 16.1 | 0.00 | 0.15 | 0.15 | 51 | 1014.9 |
| 20260905134336 | 23 | 277 | 6.4 | 17.7 | 0.00 | 0.15 | 0.15 | 51 | 1015.5 |
| 20260905133324 | 22 | 252 | 4.8 | 22.5 | 0.00 | 0.15 | 0.15 | 55 | 1015.5 |
| 20260905133004 | 21 | 348 | 6.4 | 22.5 | 0.00 | 0.15 | 0.15 | 53 | 1015.0 |
| 20260905132821 | 21 | 315 | 3.2 | 12.9 | 0.00 | 0.15 | 0.15 | 53 | 1015.5 |
| 20260905132311 | 22 | 202 | 3.2 | 12.9 | 0.00 | 0.15 | 0.15 | 55 | 1015.7 |
| 20260905131539 | 21 | 295 | 3.2 | 17.7 | 0.00 | 0.15 | 0.15 | 53 | 1015.1 |
| 20260905131301 | 22 | 17 | 4.8 | 17.7 | 0.00 | 0.15 | 0.15 | 53 | 1015.7 |
| 20260905130752 | 21 | 308 | 4.8 | 19.3 | 0.00 | 0.15 | 0.15 | 53 | 1015.6 |
| 20260905130240 | 22 | 309 | 6.4 | 19.3 | 0.00 | 0.15 | 0.15 | 51 | 1015.6 |
| 20260905130009 | 21 | 259 | 1.6 | 19.3 | 0.00 | 0.15 | 0.15 | 52 | 1014.9 |
| 20260905125728 | 22 | 309 | 4.8 | 19.3 | 0.00 | 0.15 | 0.15 | 52 | 1015.6 |
| 20260905125220 | 21 | 309 | 3.2 | 16.1 | 0.00 | 0.15 | 0.15 | 53 | 1015.7 |
| 20260905124707 | 21 | 249 | 4.8 | 19.3 | 0.00 | 0.15 | 0.15 | 52 | 1015.7 |
| 20260905124541 | 21 | 252 | 4.8 | 19.3 | 0.00 | 0.15 | 0.15 | 51 | 1015.1 |
| 20260905123131 | 22 | 239 | 6.4 | 20.9 | 0.00 | 0.15 | 0.15 | 52 | 1015.7 |
| 20260905123002 | 21 | 246 | 6.4 | 19.3 | 0.00 | 0.15 | 0.15 | 53 | 1015.1 |
| 20260905122618 | 22 | 285 | 4.8 | 17.7 | 0.00 | 0.15 | 0.15 | 52 | 1015.8 |
| 20260905122118 | 22 | 300 | 4.8 | 16.1 | 0.00 | 0.15 | 0.15 | 55 | 1015.8 |
| 20260905121606 | 22 | 296 | 4.8 | 16.1 | 0.00 | 0.15 | 0.15 | 51 | 1015.7 |
| 20260905121544 | 22 | 296 | 3.2 | 16.1 | 0.00 | 0.15 | 0.15 | 51 | 1015.1 |
| 20260905121054 | 22 | 319 | 6.4 | 24.1 | 0.00 | 0.15 | 0.15 | 53 | 1015.7 |
| 20260905120016 | 22 | 223 | 3.2 | 24.1 | 0.00 | 0.15 | 0.15 | 55 | 1015.1 |
| 20260905115512 | 22 | 350 | 6.4 | 24.1 | 0.00 | 0.15 | 0.15 | 53 | 1015.7 |
| 20260905115005 | 22 | 298 | 4.8 | 19.3 | 0.00 | 0.15 | 0.15 | 53 | 1015.8 |
| 20260905114530 | 22 | 261 | 1.6 | 19.3 | 0.00 | 0.15 | 0.15 | 57 | 1015.2 |
| 20260905114453 | 22 | 259 | 4.8 | 19.3 | 0.00 | 0.15 | 0.15 | 57 | 1015.8 |
| 20260905113427 | 22 | 308 | 4.8 | 16.1 | 0.00 | 0.15 | 0.15 | 57 | 1015.9 |
| 20260905113057 | 22 | 360 | 6.4 | 16.1 | 0.00 | 0.15 | 0.15 | 56 | 1015.3 |
| 20260905112911 | 22 | 320 | 6.4 | 19.3 | 0.00 | 0.15 | 0.15 | 55 | 1015.8 |
| 20260905112356 | 22 | 292 | 6.4 | 19.3 | 0.00 | 0.15 | 0.15 | 56 | 1015.9 |
| 20260905111842 | 22 | 70 | 6.4 | 24.1 | 0.00 | 0.15 | 0.15 | 59 | 1015.9 |
| 20260905111510 | 21 | 317 | 3.2 | 24.1 | 0.00 | 0.15 | 0.15 | 57 | 1015.3 |
| 20260905111330 | 21 | 312 | 8.0 | 24.1 | 0.00 | 0.15 | 0.15 | 57 | 1015.9 |
| 20260905110816 | 21 | 273 | 6.4 | 20.9 | 0.00 | 0.15 | 0.15 | 59 | 1016.0 |
| 20260905110317 | 21 | 331 | 6.4 | 20.9 | 0.00 | 0.15 | 0.15 | 57 | 1015.9 |
| 20260905110032 | 21 | 292 | 8.0 | 20.9 | 0.00 | 0.15 | 0.15 | 58 | 1015.3 |
| 20260905105231 | 21 | 314 | 4.8 | 20.9 | 0.00 | 0.15 | 0.15 | 61 | 1015.9 |
| 20260905104714 | 21 | 325 | 4.8 | 20.9 | 0.00 | 0.15 | 0.15 | 60 | 1015.9 |
| 20260905104546 | 21 | 254 | 3.2 | 14.5 | 0.00 | 0.15 | 0.15 | 61 | 1015.3 |
| 20260905104200 | 20 | 217 | 6.4 | 33.8 | 0.00 | 0.15 | 0.15 | 61 | 1015.9 |
| 20260905103133 | 21 | 257 | 6.4 | 27.4 | 0.00 | 0.15 | 0.15 | 58 | 1015.9 |
| 20260905103016 | 21 | 321 | 9.7 | 22.5 | 0.00 | 0.15 | 0.15 | 60 | 1015.3 |
| 20260905102620 | 21 | 323 | 6.4 | 24.1 | 0.00 | 0.15 | 0.15 | 61 | 1015.9 |
| 20260905102103 | 20 | 340 | 6.4 | 24.1 | 0.00 | 0.15 | 0.15 | 63 | 1016.0 |
| 20260905101524 | 20 | 52 | 6.4 | 16.1 | 0.00 | 0.15 | 0.15 | 66 | 1015.3 |
| 20260905101034 | 20 | 272 | 3.2 | 12.9 | 0.00 | 0.15 | 0.15 | 71 | 1016.0 |
| 20260905100519 | 19 | 309 | 3.2 | 12.9 | 0.00 | 0.15 | 0.15 | 72 | 1016.0 |
| 20260905100042 | 18 | 263 | 3.2 | 19.3 | 0.00 | 0.15 | 0.15 | 73 | 1015.4 |
| 20260905100005 | 19 | 294 | 4.8 | 19.3 | 0.00 | 0.15 | 0.15 | 74 | 1015.9 |
| 20260905095451 | 18 | 254 | 3.2 | 19.3 | 0.00 | 0.15 | 0.15 | 73 | 1016.0 |
| 20260905094939 | 18 | 355 | 3.2 | 12.9 | 0.00 | 0.15 | 0.15 | 76 | 1016.1 |
| 20260905094511 | 18 | 288 | 1.6 | 12.9 | 0.00 | 0.15 | 0.15 | 76 | 1015.4 |
| 20260905094437 | 18 | 276 | 3.2 | 12.9 | 0.00 | 0.15 | 0.15 | 77 | 1016.0 |
| 20260905093407 | 19 | 336 | 4.8 | 12.9 | 0.00 | 0.15 | 0.15 | 77 | 1015.9 |
| 20260905093039 | 18 | 253 | 3.2 | 16.1 | 0.00 | 0.15 | 0.15 | 76 | 1015.3 |
| 20260905092852 | 19 | 242 | 6.4 | 22.5 | 0.00 | 0.15 | 0.15 | 76 | 1015.8 |
| 20260905092341 | 19 | 248 | 8.0 | 25.7 | 0.00 | 0.15 | 0.15 | 75 | 1015.9 |
| 20260905091827 | 19 | 343 | 9.7 | 25.7 | 0.00 | 0.15 | 0.15 | 76 | 1015.9 |
| 20260905091556 | 18 | 241 | 9.7 | 25.7 | 0.00 | 0.15 | 0.15 | 76 | 1015.3 |
| 20260905091310 | 19 | 247 | 11.3 | 20.9 | 0.00 | 0.15 | 0.15 | 77 | 1015.9 |
| 20260905090754 | 18 | 254 | 11.3 | 24.1 | 0.00 | 0.15 | 0.15 | 78 | 1016.0 |
| 20260905090241 | 18 | 235 | 9.7 | 24.1 | 0.00 | 0.15 | 0.15 | 79 | 1016.1 |
| 20260905090008 | 18 | 215 | 9.7 | 24.1 | 0.00 | 0.15 | 0.15 | 81 | 1015.5 |
| 20260905085724 | 18 | 227 | 8.0 | 17.7 | 0.00 | 0.15 | 0.15 | 82 | 1016.2 |